Weather past 2 weeks in Mamoutzou, Mayotte

Now
75 °F

Mild.


Feels Like: 75 °F
Forecast: 76 / 80 °F
Wind: 6 mph from Southwest

Location: Dzaoudzi / Pamanzi Mayotte

Current Time: Aug 1, 2015 at 1:25:15 AM

Latest Report: Aug 1, 2015 at 1:00 AM


Visibility: N/A

Pressure: 29.98 "Hg

Humidity: 83%

Dew point: 70 °F

Location of MamoutzouLocation

Historic Weather in Mamoutzou — Graph

°F

Mamoutzou temperature yesterday

Maximum temperature yesterday: 84 °F (at 12:30 PM)
Minimum temperature yesterday: 72 °F (at 12:00 AM)
Average temperature yesterday: 78 °F

Past Weeks' High & Low Weather Summary

 TemperatureHumidityPressure
High84 °F (Jul 18, 10:30 AM)94% (Jul 19, 2:00 AM)32.96 "Hg (Jul 19, 2:00 AM)
Low70 °F (Jul 19, 12:30 AM)54% (Jul 18, 4:30 PM)29.95 "Hg (Jul 31, 3:00 AM)
Average78 °F72%30.03 "Hg
* Reported Midnight between Jul 16 and Jul 17 — Midnight between Jul 31 and Aug 1, Mamoutzou, Weather by CustomWeather, © 2015

Note: Actual official high and low records may vary slightly from our data, if they occured in-between our weather recording intervals... More about our weather records

Advertising

Mamoutzou weather history for previous 24 hours

 ConditionsComfort  
Time TempWeatherWind HumidityBarometerVisibility
12:00 AM
Sat, Aug 1
75 °FMild.3 mph83%30.01 "HgN/A
11:30 PM
Fri, Jul 31
75 °FMild.5 mph83%30.01 "HgN/A
11:00 PM75 °FMild.5 mph83%30.01 "HgN/A
10:30 PM77 °FWarm.5 mph79%30.01 "HgN/A
10:00 PM77 °FWarm.6 mph79%30.01 "HgN/A
9:30 PM77 °FWarm.6 mph79%30.01 "HgN/A
9:00 PM77 °FPartly cloudy.6 mph74%30.01 "HgN/A
8:30 PM77 °FPassing clouds.6 mph79%30.01 "HgN/A
8:00 PM77 °FWarm.8 mph79%30.01 "HgN/A
7:30 PM77 °FWarm.9 mph79%29.98 "HgN/A
7:00 PM77 °FPartly cloudy.8 mph74%29.98 "HgN/A
6:30 PM79 °FPartly cloudy.7 mph70%29.98 "HgN/A
6:00 PM79 °FPassing clouds.8 mph70%29.98 "HgN/A
5:30 PM79 °FPassing clouds.10 mph70%29.95 "HgN/A
5:00 PM81 °FPassing clouds.12 mph66%29.95 "HgN/A
4:30 PM81 °FPassing clouds.12 mph66%29.95 "HgN/A
4:00 PM82 °FPassing clouds.14 mph66%29.95 "HgN/A
3:30 PM82 °FPassing clouds.12 mph66%29.95 "HgN/A
3:00 PM82 °FPassing clouds.12 mph66%29.95 "HgN/A
2:30 PM84 °FPassing clouds.10 mph62%29.95 "HgN/A
2:00 PM84 °FPassing clouds.9 mph62%29.95 "HgN/A
1:30 PM82 °FPassing clouds.9 mph62%29.98 "HgN/A
1:00 PM84 °FPassing clouds.9 mph58%29.98 "HgN/A
12:30 PM84 °FScattered clouds.9 mph58%29.98 "HgN/A
12:00 PM82 °FPartly sunny.7 mph62%30.01 "HgN/A
11:30 AM82 °FPartly sunny.7 mph62%30.01 "HgN/A
11:00 AM82 °FScattered clouds.7 mph62%30.01 "HgN/A
10:30 AM82 °FScattered clouds.7 mph62%30.04 "HgN/A
10:00 AM82 °FPartly sunny.7 mph62%30.04 "HgN/A
9:30 AM81 °FPassing clouds.7 mph66%30.04 "HgN/A
9:00 AM81 °FPassing clouds.3 mph62%30.04 "HgN/A
8:30 AM81 °FPassing clouds.2 mph66%30.01 "HgN/A
8:00 AM79 °FPassing clouds.2 mph70%30.01 "HgN/A
7:30 AM77 °FPassing clouds.2 mph74%29.98 "HgN/A
7:00 AM73 °FScattered clouds.3 mph83%29.98 "HgN/A
6:30 AM72 °FPassing clouds.No wind83%29.98 "HgN/A
6:00 AM72 °FPassing clouds.3 mph78%29.98 "HgN/A
5:30 AM72 °FPassing clouds.No wind78%29.98 "HgN/A
5:00 AM73 °FPassing clouds.2 mph74%29.98 "HgN/A
4:30 AM73 °FMild.7 mph78%29.95 "HgN/A
4:00 AM73 °FMild.6 mph89%29.95 "HgN/A
3:30 AM72 °FMild.No wind83%29.95 "HgN/A
3:00 AM72 °FMild.1 mph88%29.95 "HgN/A
2:30 AM73 °FMild.No wind83%29.98 "HgN/A
2:00 AM73 °FMild.6 mph83%29.98 "HgN/A
1:30 AM72 °FMild.6 mph83%29.98 "HgN/A
1:00 AM72 °FMild.5 mph88%30.01 "HgN/A
Weather by CustomWeather, © 2015

See weather overviewHow to use our weather pages